Home > Weather > Owensboro > Past weeks

Flag for USA Weather for the Past 2 Weeks in Owensboro, Kentucky, USA

Now
49 °F

Clear.


Feels Like: 49 °F
Forecast: 46 / 71 °F
Wind: No wind

Location: Owensboro / Daviess

Current Time: May 6, 2016 at 3:10:03 AM

Latest Report: May 6, 2016 at 1:56 AM


Visibility: 10 mi

Pressure: 29.98 "Hg

Humidity: 93%

Dew Point: 47 °F

Location of OwensboroLocation

Historic Weather in Owensboro — Graph

°F

Owensboro Temperature Yesterday

Maximum temperature yesterday: 60 °F (at 6:56 PM)
Minimum temperature yesterday: 48 °F (at 3:56 AM)
Average temperature yesterday: 52 °F

High & Low Weather Summary for the Past Weeks

 TemperatureHumidityPressure
High86 °F (Apr 26, 1:56 PM)100% (Apr 21, 2:56 AM)30.15 "Hg (Apr 21, 2:56 AM)
Low46 °F (Apr 24, 5:56 AM)35% (Apr 24, 5:56 PM)29.68 "Hg (Apr 27, 4:56 PM)
Average63 °F78%29.91 "Hg
* Reported Apr 21 1:56 AM — May 6 1:56 AM, Owensboro, Weather by CustomWeather, © 2016

Note: Actual official high and low records may vary slightly from our data, if they occured in-between our weather recording intervals... More about our weather records

Advertising

Owensboro Weather History for the Previous 24 Hours

Scroll right to see more
 ConditionsComfort  
Time TempWeatherWind HumidityBarometerVisibility
1:56 AM
Fri, May 6
49 °FClear.No wind93%29.98 "Hg10 mi
12:56 AM50 °FClear.No wind89%29.99 "Hg10 mi
11:56 PM
Thu, May 5
51 °FPassing clouds.No wind86%29.98 "Hg10 mi
10:56 PM50 °FPassing clouds.No wind89%29.98 "Hg10 mi
9:56 PM51 °FClear.No wind86%29.98 "Hg10 mi
8:56 PM53 °FClear.No wind83%29.96 "Hg10 mi
7:56 PM56 °FClear.No wind72%29.95 "Hg10 mi
6:56 PM60 °FSunny.7 mph60%29.95 "Hg10 mi
5:56 PM59 °FPartly sunny.10 mph64%29.95 "Hg10 mi
4:56 PM59 °FOvercast.13 mph60%29.95 "Hg10 mi
3:56 PM59 °FMostly cloudy.13 mph62%29.95 "Hg10 mi
2:56 PM57 °FMostly cloudy.12 mph62%29.95 "Hg10 mi
1:56 PM58 °FMostly cloudy.7 mph55%29.94 "Hg10 mi
12:56 PM56 °FPartly sunny.9 mph58%29.93 "Hg10 mi
11:56 AM54 °FOvercast.14 mph62%29.94 "Hg10 mi
10:56 AM51 °FBroken clouds.14 mph66%29.93 "Hg10 mi
9:56 AM49 °FOvercast.12 mph71%29.91 "Hg10 mi
8:56 AM48 °FOvercast.16 mph71%29.89 "Hg10 mi
7:56 AM48 °FMostly cloudy.14 mph71%29.85 "Hg10 mi
6:56 AM49 °FPartly sunny.16 mph74%29.82 "Hg10 mi
5:56 AM48 °FSunny.9 mph86%29.79 "Hg10 mi
4:56 AM48 °FClear.8 mph86%29.78 "Hg10 mi
3:56 AM48 °FPassing clouds.6 mph86%29.78 "Hg10 mi
Weather by CustomWeather, © 2016

See weather overviewHow to use our weather pages